Location: Unspecified
(56.5167°N, 0.0000°E)
Time: 13:44:20
(UTC+02:00)

ISS - Visible Passes

Search period start: 26 May 2015 00:00
Search period end: 05 June 2015 00:00
Orbit: 399 x 404 km, 51.6° (Epoch: 26 May)

Date Brightness Start Highest point End Pass type
(mag) Time Alt. Az. Time Alt. Az. Time Alt. Az.
26 May -2.1 03:08:18 18° SSW 03:09:38 24° SSE 03:12:21 10° ESE visible
27 May -1.8 02:16:34 19° SSE 02:16:37 19° SSE 02:19:00 10° ESE visible
27 May -2.6 03:49:29 10° WSW 03:52:29 33° S 03:55:29 10° ESE visible
28 May -1.1 01:24:43 12° SE 01:24:43 12° SE 01:25:24 10° ESE visible
28 May -2.5 02:57:16 15° SW 02:59:22 30° SSE 03:02:18 10° ESE visible
29 May -2.2 02:05:12 21° SSW 02:06:17 25° SSE 02:09:03 10° ESE visible
29 May -2.7 03:39:14 10° WSW 03:42:14 34° S 03:45:15 10° ESE visible
30 May -2.0 01:12:40 19° S 01:13:13 20° SSE 01:15:42 10° ESE visible
30 May -2.7 02:46:06 10° WSW 02:49:06 34° S 02:52:07 10° ESE visible
30 May -2.3 04:22:14 10° WSW 04:25:03 27° SSW 04:27:53 10° SE visible
31 May -1.6 00:18:16 10° S 00:20:11 15° SSE 00:22:09 10° ESE visible
31 May -2.6 01:53:02 10° SW 01:55:58 31° S 01:58:55 10° ESE visible
31 May -2.6 03:29:00 10° WSW 03:31:56 31° S 03:34:54 10° SE visible
01 Jun -2.4 01:00:03 10° SW 01:02:50 26° SSE 01:05:38 10° ESE visible
01 Jun -2.7 02:35:48 10° WSW 02:38:47 34° S 02:41:48 10° ESE visible
01 Jun -2.0 04:12:09 10° WSW 04:14:41 21° SSW 04:17:12 10° SSE visible
02 Jun -2.1 00:07:11 10° SSW 00:09:43 21° SSE 00:12:17 10° ESE visible
02 Jun -2.7 01:42:37 10° WSW 01:45:37 34° S 01:48:38 10° ESE visible
02 Jun -2.3 03:18:47 10° WSW 03:21:34 26° SSW 03:24:21 10° SE visible
03 Jun -2.6 00:49:30 10° SW 00:52:27 32° S 00:55:24 10° ESE visible
03 Jun -2.6 02:25:29 10° WSW 02:28:25 30° S 02:31:20 10° SE visible
03 Jun -1.6 04:02:17 10° WSW 04:04:11 14° SSW 04:06:03 10° S visible
03 Jun -2.4 23:56:27 10° SW 23:59:16 27° SSE 00:02:07 10° ESE visible
04 Jun -2.7 01:32:14 10° WSW 01:35:14 34° S 01:38:14 10° ESE visible
04 Jun -1.9 03:08:39 10° WSW 03:11:06 19° SSW 03:13:31 10° SSE visible
